Lapse_Rate
5.9 6.3 6.3 6.1 6.2 6.3 6.2 6.0 6.0 6.0 6.0 6.2 6.2 6.1 6.0 5.8 5.8 5.7 5.6 5.5 5.7 5.9
6.1 6.2 6.3 6.3 6.1 5.8 6.0 6.1 5.9 5.9 5.8 5.8 5.9 6.0 6.0 6.0 5.9 6.0 5.9 5.7 5.8 5.9
6.3 6.3 6.3 6.4 6.2 6.1 6.0 6.0 6.0 5.9 5.8 5.7 5.6 5.6 5.8 5.9 5.8 6.0 6.0 5.9 6.0 5.9
6.7 6.9 6.6 6.3 5.7 5.7 5.9 6.1 6.1 6.0 5.8 5.8 5.7 5.7 5.6 5.6 5.7 5.7 5.8 6.0 6.0 6.0
6.3 6.1 6.4 6.3 5.9 6.0 5.9 5.8 6.0 6.3 6.5 6.1 5.8 5.7 5.8 5.6 5.6 5.6 5.7 5.7 5.8 6.0
6.1 5.9 6.1 6.0 5.8 5.8 5.8 5.6 5.6 5.9 6.0 6.1 6.0 6.0 6.1 6.0 5.7 5.6 5.4 5.5 5.5 5.7
6.2 6.0 5.9 5.9 5.9 5.9 5.8 5.5 5.5 5.6 5.8 5.7 5.7 6.0 6.0 6.1 6.1 6.0 5.8 5.5 5.3 5.3
6.2 6.2 6.1 5.9 5.7 5.7 5.8 5.8 5.8 5.6 5.4 5.3 5.4 5.5 5.7 5.8 5.8 6.0 6.0 6.0 5.7 5.6
5.6 5.7 5.8 5.9 5.8 5.8 5.6 5.6 5.7 5.7 5.5 5.4 5.4 5.3 5.6 5.5 5.3 5.7 6.0 6.2 6.0 5.7
5.3 5.4 5.6 5.7 5.7 5.8 5.8 5.7 5.7 5.6 5.6 5.5 5.6 5.5 5.5 5.5 5.5 5.6 6.0 6.0 6.0 6.0
5.5 5.5 5.4 5.5 5.7 5.9 5.9 5.9 5.9 5.8 5.7 5.7 5.6 5.6 5.7 5.8 5.6 5.6 5.6 6.0 6.2 6.2
5.6 5.6 5.6 5.6 5.6 5.6 5.7 5.9 6.0 6.0 5.8 5.8 5.9 5.7 5.6 5.6 5.9 5.9 6.0 6.0 5.9 6.2
5.5 5.6 5.7 5.7 5.7 5.7 5.7 5.7 5.8 6.0 6.2 6.2 6.1 6.0 6.0 5.9 5.9 6.1 6.4 6.4 6.4 6.3
5.8 5.8 5.9 6.1 6.1 6.1 6.0 5.9 5.9 5.9 6.0 6.1 6.2 6.2 6.2 5.9 6.0 6.5 6.6 6.7 6.6 6.5
Wind_Speed
10 7 7 8 7 7 7 7 8 10 10 12 12 9 8 6 6 6 6 6 6 5
8 9 9 10 9 7 8 7 8 8 9 11 11 11 9 7 8 7 8 7 6 6
6 8 9 9 10 8 8 8 7 8 9 9 11 10 10 9 9 9 9 7 8 7
7 5 8 8 9 10 9 9 9 9 10 10 11 11 10 11 11 10 11 10 9 10
7 8 5 6 11 9 10 10 10 10 10 11 11 11 12 12 12 12 13 13 11 12
1 5 8 5 8 9 8 10 10 10 11 12 12 12 13 13 13 14 13 13 12 14
3 5 5 4 3 4 6 8 9 10 11 13 13 13 13 13 13 14 14 14 14 15
5 4 6 6 6 5 4 4 6 8 11 13 13 12 14 14 14 14 14 14 13 15
7 7 7 6 5 6 6 5 5 6 8 10 9 10 9 14 14 14 14 14 14 14
6 8 10 10 10 9 7 6 7 7 8 9 10 9 11 12 14 14 15 15 14 13
7 8 9 9 11 11 10 10 10 10 10 10 9 8 10 12 12 12 15 16 16 15
10 10 11 11 11 11 11 12 12 12 11 11 12 10 12 10 10 12 13 12 12 14
10 10 11 12 12 11 11 12 11 13 13 14 14 11 12 11 9 11 10 10 13 19
10 11 11 11 11 11 12 12 13 14 13 15 14 14 12 13 10 11 11 11 11 11
Wind_Direction
230 241 249 248 248 237 238 236 221 212 221 217 220 224 222 230 242 236 243 233 232 248
224 231 243 246 244 237 235 247 242 233 230 227 217 218 223 233 234 236 241 243 233 244
236 245 252 261 248 245 242 229 238 239 230 229 229 229 229 233 235 239 241 242 237 240
232 238 239 248 253 233 238 235 230 231 231 226 220 225 229 237 250 244 247 247 244 243
211 238 253 220 248 250 244 241 231 230 231 235 231 225 225 234 242 239 243 246 247 250
174 257 294 277 259 263 262 257 249 242 244 240 238 236 234 235 239 239 243 247 242 248
355 325 315 307 290 275 270 265 263 255 252 250 248 246 246 240 242 248 250 251 250 247
319 307 306 313 323 321 301 290 278 275 267 259 253 249 242 244 243 242 245 248 247 247
312 308 304 296 298 302 303 295 279 271 269 272 262 270 255 251 249 246 246 247 243 246
314 311 312 313 310 299 290 288 278 277 276 274 270 244 250 242 253 256 252 250 251 246
318 305 299 297 295 297 303 303 297 285 275 270 272 249 240 242 257 260 256 253 251 253
317 309 305 299 296 292 292 289 285 281 274 268 269 243 240 237 252 252 250 242 240 236
306 302 298 294 293 295 289 284 284 278 271 268 268 256 235 232 256 257 255 245 225 226
311 306 297 296 296 297 293 287 280 277 273 267 263 264 229 227 247 252 256 253 248 236